EDT,Max TemperatureF,Mean TemperatureF,Min TemperatureF,Max Dew PointF,MeanDew PointF,Min DewpointF,Max Humidity, Mean Humidity, Min Humidity, Max Sea Level PressureIn, Mean Sea Level PressureIn, Min Sea Level PressureIn, Max VisibilityMiles, Mean VisibilityMiles, Min VisibilityMiles, Max Wind SpeedMPH, Mean Wind SpeedMPH, Max Gust SpeedMPH,PrecipitationIn, CloudCover, Events, WindDirDegrees
2013-3-1,42,35,28,28,26,22,92,69,51,29.83,29.73,29.65,,,,9,3,18,0.00,,,345
2013-3-2,35,32,28,22,20,18,72,63,54,29.82,29.79,29.75,,,,9,6,17,0.01,,,345
2013-3-3,35,31,26,18,16,13,66,58,48,29.82,29.77,29.72,,,,12,8,24,0.00,,,345
2013-3-4,39,32,25,19,17,13,66,55,41,29.96,29.87,29.81,,,,12,7,24,0.00,,,340
2013-3-5,46,37,28,27,22,19,75,59,40,30.05,30.00,29.97,,,,8,5,20,0.00,,,11
2013-3-6,39,36,34,35,28,25,92,71,62,30.00,29.93,29.88,,,,18,7,29,0.06,,,34
2013-3-7,41,36,32,32,27,23,88,70,55,30.13,30.06,29.99,,,,15,9,26,0.08,,,12
2013-3-8,42,35,28,31,27,23,89,75,57,30.25,30.13,30.06,,,,12,7,24,0.38,,,2
2013-3-9,57,44,30,31,23,19,88,56,24,30.34,30.29,30.24,,,,8,4,,0.00,,,18
2013-3-10,54,40,25,33,27,23,92,66,34,30.39,30.33,30.27,,,,9,2,,0.00,,,187
2013-3-11,55,45,36,46,38,31,97,80,49,30.30,30.18,30.04,,,,12,5,20,0.00,,,194
2013-3-12,57,48,41,54,46,33,93,83,71,30.00,29.84,29.67,,,,13,7,24,1.11,,,210
2013-3-13,50,40,32,33,27,19,92,61,33,29.91,29.87,29.81,,,,12,4,22,0.00,,,290
2013-3-14,39,32,26,24,10,2,70,41,24,29.99,29.94,29.88,,,,17,7,29,0.00,,,321
2013-3-15,44,34,25,28,18,10,62,51,43,30.00,29.88,29.73,,,,9,6,22,0.00,,,251
2013-3-16,37,32,28,28,24,18,89,74,54,29.94,29.85,29.79,,,,6,1,,0.09,,,28
2013-3-17,35,30,25,26,16,11,92,57,40,30.32,30.14,29.95,,,,9,4,,0.00,,,355
2013-3-18,33,27,21,28,17,9,92,67,43,30.41,30.28,30.01,,,,7,2,,0.43,,,43
2013-3-19,43,37,32,33,30,14,96,81,44,29.96,29.81,29.71,,,,10,3,18,0.27,,,28
2013-3-20,42,34,28,24,17,13,73,51,33,29.90,29.85,29.80,,,,17,5,25,0.00,,,249
2013-3-21,37,32,27,22,13,9,66,48,33,29.86,29.76,29.66,,,,9,5,,0.00,,,339
2013-3-22,39,31,25,21,16,12,69,54,42,29.91,29.82,29.75,,,,9,2,21,0.00,,,304
2013-3-23,44,36,30,19,17,15,57,46,35,29.96,29.91,29.87,,,,12,5,22,0.00,,,321
2013-3-24,45,34,25,24,20,17,78,51,37,29.96,29.85,29.72,,,,10,4,17,0.00,,,14
2013-3-25,41,38,34,31,26,23,89,63,51,29.70,29.59,29.48,,,,9,4,18,0.03,,,32
2013-3-26,52,41,30,30,27,22,85,62,33,29.90,29.76,29.63,,,,12,2,21,0.00,,,333
2013-3-27,51,38,26,30,25,19,89,63,29,30.02,29.94,29.90,,,,12,3,24,0.00,,,321
2013-3-28,48,38,30,29,28,26,92,63,44,30.14,30.05,30.00,,,,9,3,17,0.00,,,352
2013-3-29,51,40,30,31,27,22,89,58,33,30.18,30.14,30.10,,,,9,4,17,0.00,,,333
2013-3-30,57,42,28,31,23,12,96,57,18,30.19,30.14,30.08,,,,8,1,16,0.00,,,329
2013-3-31,57,42,28,42,31,23,93,69,31,30.14,29.96,29.70,,,,15,2,23,0.07,,,175